GW5682 Weather Reports


Display with metric or nautical units.
time (UTC)temp
F
wind
direction
speed
MPH
gust
MPH
rain 1hr
in
rain 24hr
in
rain mn
in
humidity
%
barometer
mb
20260509152118 73 0.0 0.0 0.00 0.02 0.00 79 1013.0
20260509151142 73 0.0 1.0 0.00 0.02 0.00 80 1013.1
20260509150118 72 45 1.0 1.0 0.00 0.02 0.00 83 1013.0
20260509145142 72 90 1.0 2.0 0.00 0.02 0.00 82 1013.2
20260509144118 72 0 2.0 3.0 0.00 0.02 0.00 84 1012.8
20260509143142 72 45 1.0 3.0 0.00 0.02 0.00 86 1012.7
20260509142118 72 270 5.0 6.0 0.00 0.02 0.00 89 1012.7
20260509141142 72 293 1.0 1.0 0.00 0.02 0.00 91 1012.7
20260509140138 71 0.0 1.0 0.00 0.02 0.00 94 1012.6
20260509135142 71 0.0 1.0 0.00 0.02 0.00 97 1012.6
20260509134118 70 0.0 1.0 0.00 0.02 0.00 99 1012.5
20260509133202 70 0.0 0.0 0.00 0.02 0.00 99 1012.5
20260509132118 69 90 1.0 1.0 0.00 0.02 0.00 99 1012.3
20260509131202 69 45 1.0 1.0 0.00 0.02 0.00 99 1012.5
20260509130118 69 0 1.0 3.0 0.00 0.02 0.00 99 1012.4
20260509125202 69 0.0 0.0 0.00 0.02 0.00 99 1012.6
20260509124118 69 0.0 0.0 0.00 0.02 0.00 99 1012.7
20260509123142 68 0.0 0.0 0.00 0.04 0.00 99 1012.6
20260509122118 68 0.0 0.0 0.00 0.04 0.00 99 1012.3
20260509121202 68 0.0 0.0 0.00 0.04 0.00 98 1012.4
20260509120118 68 0.0 1.0 0.00 0.04 0.00 98 1012.3
20260509115142 68 0.0 0.0 0.00 0.04 0.00 98 1011.9
20260509114138 68 0.0 1.0 0.00 0.04 0.00 98 1011.9
20260509113142 68 45 1.0 1.0 0.00 0.07 0.00 98 1011.7
20260509112118 68 0.0 1.0 0.00 0.15 0.00 98 1011.8
20260509111142 68 90 1.0 1.0 0.00 0.21 0.00 97 1011.5
20260509110118 68 0.0 1.0 0.00 0.31 0.00 97 1011.3
20260509105142 68 0.0 0.0 0.00 0.50 0.00 97 1011.3
20260509104118 68 225 1.0 3.0 0.00 0.59 0.00 97 1011.2
20260509103142 68 0.0 1.0 0.00 0.63 0.00 96 1010.9
20260509102118 68 135 1.0 1.0 0.00 0.66 0.00 96 1011.0
20260509101202 68 135 3.0 3.0 0.00 0.66 0.00 96 1011.0
20260509100118 68 135 2.0 3.0 0.00 0.66 0.00 96 1011.1
20260509095142 68 45 1.0 1.0 0.00 0.66 0.00 96 1011.2
20260509094119 68 45 1.0 1.0 0.00 0.66 0.00 97 1011.0
20260509093202 68 0 2.0 3.0 0.00 0.66 0.00 97 1011.1
20260509092118 68 45 1.0 1.0 0.00 0.66 0.00 98 1010.6
20260509091142 68 45 3.0 5.0 0.00 0.66 0.00 99 1010.2
20260509090118 68 90 3.0 6.0 0.00 0.66 0.00 99 1010.1
20260509085142 68 90 5.0 6.0 0.00 0.67 0.00 99 1010.3
20260509084118 68 135 3.0 4.0 0.00 0.67 0.00 99 1010.2
20260509083142 68 315 4.0 5.0 0.00 0.67 0.00 99 1010.4
20260509082118 67 135 5.0 5.0 0.00 0.69 0.00 99 1010.9
20260509081142 67 315 2.0 3.0 0.00 0.77 0.00 99 1011.3
20260509080138 67 90 1.0 2.0 0.00 0.77 0.00 99 1011.3
20260509075142 67 90 1.0 2.0 0.00 0.77 0.00 99 1011.9
20260509074118 66 0.0 1.0 0.00 0.77 0.00 99 1012.1
20260509073142 66 90 1.0 2.0 0.00 0.77 0.00 99 1012.4
20260509072118 66 0.0 1.0 0.00 0.77 0.00 99 1012.6
20260509071142 66 90 1.0 3.0 0.00 0.77 0.00 99 1012.7
20260509070138 66 0 2.0 3.0 0.00 0.77 0.00 98 1012.8
20260509065222 66 0 1.0 2.0 0.00 0.77 0.00 96 1012.6
20260509064118 66 0.0 0.0 0.00 0.77 0.00 95 1012.2
20260509063142 66 0.0 1.0 0.00 0.77 0.00 95 1012.1
20260509062118 66 135 1.0 1.0 0.00 0.77 0.00 95 1011.9
20260509061142 67 135 1.0 1.0 0.00 0.77 0.00 95 1011.6
20260509060138 67 0.0 0.0 0.00 0.77 0.00 96 1011.9
20260509054607 67 0.0 0.0 0.00 0.77 0.00 95 1012.7
20260509053632 67 0.0 0.0 0.00 0.77 0.00 95 1013.2
20260509052608 67 0.0 0.0 0.00 0.77 0.00 95 1013.1
20260509051632 67 0.0 1.0 0.00 0.77 0.00 95 1013.1
20260509050628 67 45 1.0 1.0 0.00 0.77 0.00 95 1013.6
20260509045632 67 0.0 1.0 0.02 0.77 0.77 94 1013.0
20260509044628 67 0 2.0 3.0 0.02 0.77 0.77 91 1012.6
20260509043632 67 0.0 0.0 0.02 0.77 0.77 89 1012.1
20260509042607 67 0.0 1.0 0.02 0.77 0.77 89 1012.1
20260509041632 68 135 4.0 8.0 0.02 0.77 0.77 87 1011.2
20260509040608 69 270 2.0 3.0 0.02 0.77 0.77 84 1011.3
20260509035632 69 135 1.0 3.0 0.00 0.74 0.74 82 1011.5
20260509034608 69 0.0 1.0 0.00 0.74 0.74 81 1012.6
20260509033632 69 0.0 0.0 0.00 0.74 0.74 81 1013.2
20260509032607 69 0.0 0.0 0.00 0.74 0.74 80 1012.6
20260509031632 69 0.0 0.0 0.00 0.74 0.74 79 1012.3
20260509030607 69 0.0 1.0 0.00 0.74 0.74 79 1012.3
20260509025632 69 0.0 0.0 0.00 0.74 0.74 79 1012.4
20260509024628 69 0 1.0 1.0 0.00 0.74 0.74 80 1012.3
20260509023632 69 90 1.0 1.0 0.00 0.74 0.74 80 1011.7
20260509022607 69 90 3.0 4.0 0.00 0.74 0.74 80 1011.4
20260509021632 69 90 1.0 1.0 0.00 0.74 0.74 80 1011.2
20260509020608 69 0.0 0.0 0.00 0.74 0.74 78 1011.3
20260509015631 69 0.0 1.0 0.00 0.74 0.74 78 1011.3
20260509014607 70 0.0 1.0 0.00 0.74 0.74 77 1011.2
20260509013631 70 90 1.0 1.0 0.00 0.74 0.74 76 1011.1
20260509012607 70 90 1.0 1.0 0.00 0.74 0.74 76 1011.1
20260509011632 70 135 1.0 1.0 0.00 0.74 0.74 75 1011.2
20260509010607 71 90 1.0 1.0 0.00 0.74 0.74 74 1011.0
20260509005631 71 0.0 0.0 0.00 0.74 0.74 73 1011.0
20260509004608 72 0.0 0.0 0.00 0.74 0.74 72 1010.7
20260509003632 72 0.0 1.0 0.00 0.74 0.74 72 1010.5
20260509002608 73 0.0 1.0 0.00 0.74 0.74 68 1010.6
20260509001632 74 225 1.0 1.0 0.00 0.74 0.74 67 1010.4
20260509000608 75 0.0 1.0 0.00 0.74 0.74 65 1010.6
20260508235632 75 0 1.0 1.0 0.00 0.74 0.74 64 1010.8
20260508234608 77 135 4.0 7.0 0.00 0.74 0.74 63 1010.3
20260508233631 77 180 3.0 5.0 0.00 0.74 0.74 63 1010.9
20260508232608 77 135 2.0 3.0 0.00 0.74 0.74 64 1010.9
20260508231631 77 0.0 1.0 0.00 0.74 0.74 63 1010.8
20260508230608 78 90 1.0 1.0 0.00 0.74 0.74 63 1011.0
20260508225632 79 135 1.0 2.0 0.00 0.74 0.74 61 1010.8
20260508224608 81 135 1.0 1.0 0.00 0.74 0.74 61 1011.0
20260508223652 81 135 1.0 2.0 0.00 0.74 0.74 61 1011.0
20260508222608 81 90 1.0 1.0 0.00 0.74 0.74 59 1011.0
20260508221632 81 135 1.0 1.0 0.00 0.74 0.74 59 1010.9
20260508220608 82 135 1.0 1.0 0.00 0.74 0.74 56 1010.8
20260508215631 81 135 3.0 3.0 0.00 0.74 0.74 59 1010.8
20260508214608 81 45 3.0 5.0 0.00 0.74 0.74 59 1010.6
20260508213632 81 90 3.0 5.0 0.00 0.74 0.74 57 1010.7
20260508212608 82 135 3.0 3.0 0.00 0.74 0.74 56 1011.1
20260508211652 80 135 2.0 3.0 0.00 0.74 0.74 61 1011.5
20260508210608 77 90 3.0 5.0 0.00 0.74 0.74 62 1011.7
20260508205632 78 203 1.0 3.0 0.00 0.74 0.74 61 1012.0
20260508204608 79 135 1.0 3.0 0.00 0.74 0.74 61 1012.4
20260508203632 79 90 1.0 2.0 0.00 0.74 0.74 61 1012.5
20260508202608 79 90 1.0 1.0 0.00 0.74 0.74 60 1012.3
20260508201632 80 135 1.0 1.0 0.00 0.74 0.74 60 1012.6
20260508200608 80 225 1.0 3.0 0.00 0.74 0.74 57 1012.7
20260508195632 81 180 2.0 3.0 0.00 0.74 0.74 57 1012.6
20260508194607 81 158 1.0 2.0 0.00 0.74 0.74 57 1012.7
20260508193632 80 135 1.0 1.0 0.00 0.74 0.74 55 1013.0
20260508192607 81 135 4.0 7.0 0.00 0.74 0.74 54 1013.0
20260508191632 81 90 3.0 5.0 0.00 0.74 0.74 56 1013.3
20260508190608 80 90 3.0 3.0 0.00 0.74 0.74 59 1013.2
20260508185631 79 0 2.0 3.0 0.00 0.74 0.74 60 1013.3
20260508184608 78 90 3.0 5.0 0.00 0.74 0.74 57 1013.3
20260508183632 78 90 2.0 3.0 0.00 0.74 0.74 56 1013.6
20260508182608 77 135 5.0 5.0 0.00 0.74 0.74 56 1013.8
20260508181712 78 135 5.0 7.0 0.00 0.74 0.74 60 1013.9
20260508180628 76 315 1.0 3.0 0.00 0.74 0.74 60 1014.1
20260508175632 76 45 1.0 1.0 0.00 0.74 0.74 57 1014.2
20260508174607 75 90 2.0 3.0 0.00 0.74 0.74 56 1014.5
20260508173632 76 90 3.0 5.0 0.00 0.74 0.74 57 1014.6
20260508172628 76 90 1.0 2.0 0.00 0.74 0.74 61 1014.9
20260508171632 75 0.0 1.0 0.00 0.74 0.74 61 1015.0
20260508170608 75 90 1.0 2.0 0.00 0.74 0.74 64 1015.2
20260508165712 74 90 1.0 1.0 0.00 0.74 0.74 65 1015.6
20260508164608 73 180 1.0 3.0 0.00 0.74 0.74 65 1015.7
20260508163631 72 90 1.0 2.0 0.00 0.74 0.74 71 1015.8
20260508162608 70 180 1.0 3.0 0.00 0.74 0.74 74 1016.0
20260508161631 69 225 1.0 2.0 0.00 0.74 0.74 74 1016.0
20260508160608 68 90 1.0 1.0 0.00 0.74 0.74 77 1016.1
20260508155652 67 0.0 1.0 0.00 0.74 0.74 78 1016.3
20260508154628 67 0.0 0.0 0.00 0.74 0.74 76 1016.4
20260508153652 68 90 1.0 1.0 0.00 0.74 0.74 78 1016.2